Regional Weather Roundup
Issued by NWS

Home | Current Version | Previous Version | Graphics & Text | Print | Product List | Glossary On
Versions: 1 2 3 4 5 6 7 8 9 10 11 12 13 14 15 16 17 18 19 20 21 22 23 24 25 26 27
000
ASUS45 KCYS 080810
RWRWY

WYOMING REGIONAL WEATHER ROUNDUP
NATIONAL WEATHER SERVICE CHEYENNE WY
100 AM MST THU DEC 08 2016

NOTE:  "FAIR" INDICATES FEW OR NO CLOUDS BELOW 12,000 FEET
WITH NO SIGNIFICANT WEATHER AND/OR OBSTRUCTIONS TO VISIBILITY.

WYZ001-080900-
YELLOWSTONE NATIONAL PARK

CITY           SKY/WX    TMP DP  RH WIND       PRES   REMARKS
LK YELLOWSTONE   N/A    -10 -13  86 W3        30.17F
W YELLOWSTONE  NOT AVBL

$$
WYZ002>013-054>058-071-098>099-080900-
NORTHERN WYOMING

CITY           SKY/WX    TMP DP  RH WIND       PRES   REMARKS
JACKSON        FAIR     -17 -20  83 N6        30.27S WCI -31
CODY           FAIR     -10 -13  86 CALM      30.37F
GREYBULL       FAIR      -1  -6  79 S3        30.48F
WORLAND        FAIR      -8 -13  78 CALM      30.45F
SHERIDAN       FAIR      -9 -14  78 N5        30.48S WCI -20
BUFFALO        FAIR      -4 -14  62 SW6       30.39F WCI -16
GILLETTE       FAIR      -6 -10  83 NW3       30.45S
HULETT         FAIR      -4  -8  84 MISG      30.46S
NEWCASTLE      FAIR      -8 -13  77 NW6       30.46S WCI -21

$$
WYZ014>020-022>026-101>103-080900-
CENTRAL WYOMING

CITY           SKY/WX    TMP DP  RH WIND       PRES   REMARKS
BIG PINEY      FAIR     -16 -20  82 CALM      30.23F
PINEDALE       FAIR     -18 -24  76 W10G18    30.24S WCI -39
DUBOIS         FAIR     -13 -18  77 NW6       30.18F WCI -27
LANDER         FAIR       0  -7  72 SW7       30.31F WCI -13
RIVERTON       FAIR       2  -3  80 W3        30.33F
CASPER         FAIR     -29 -31  90 CALM      30.37F
DOUGLAS        FAIR     -14 -22  67 N5        30.42S WCI -26

$$
WYZ021-027>030-104>119-080900-
SOUTHERN WYOMING

CITY           SKY/WX    TMP DP  RH WIND       PRES   REMARKS
EVANSTON       FAIR       1  -9  62 E7        30.18F WCI -12
KEMMERER         N/A     -8 -15  71 N12       30.20S WCI -27
FORT BRIDGER   FAIR       3  -1  80 CALM      30.22F
ROCK SPRINGS   FAIR      -5  -9  83 CALM      30.24S
DIXON          FAIR      -2  -9  72 E8        30.31R WCI -16
RAWLINS        FAIR     -14 -20  74 CALM      30.25S
SARATOGA       FAIR      -8 -13  77 CALM      30.25S
LARAMIE        FAIR     -17 -20  86 S3        30.20F
CHEYENNE       MOCLDY   -13 -18  78 CALM      30.30F
TORRINGTON     FAIR      -7 -12  79 W9        30.47S WCI -24
PINE BLUFFS    FAIR     -15 -22  70 MISG      30.41S

$$




USA.gov is the U.S. government's official web portal to all federal, state and local government web resources and services.